,,Stat5,,Stat1,,Stat2,,Stat3,,Stat4,,Wind1,,Wind1,
time,status,PA1M_AVG,status,PR1M_SUM,status,RH1M_AVG,status,SR1M_AVG,status,TA1M_AVG,status,W1dAve1m,status,W1sAve1m,
2002-03-17, 00:00:00,VALID,918.181,VALID,0,VALID,97.7241,VALID,0,VALID,19.7519,VALID,229,VALID,0.113498,
2002-03-17, 00:01:00,VALID,918.164,VALID,0,VALID,97.7343,VALID,-0.0169808,VALID,19.7845,VALID,229,VALID,0.032728,
2002-03-17, 00:02:00,VALID,918.148,VALID,0,VALID,97.6974,VALID,-0.0169808,VALID,19.7773,VALID,229,VALID,0,
2002-03-17, 00:03:00,VALID,918.134,VALID,0,VALID,97.5779,VALID,-0.0339617,VALID,19.7641,VALID,229,VALID,0.0347451,
2002-03-17, 00:04:00,VALID,918.139,VALID,0,VALID,97.4494,VALID,0,VALID,19.7315,VALID,228,VALID,0.248047,
2002-03-17, 00:05:00,VALID,918.125,VALID,0,VALID,97.4596,VALID,0,VALID,19.7094,VALID,216,VALID,0.208116,
2002-03-17, 00:06:00,VALID,918.108,VALID,0,VALID,97.5461,VALID,-0.0339617,VALID,19.7154,VALID,191,VALID,0.228885,
2002-03-17, 00:07:00,VALID,918.078,VALID,0,VALID,97.5867,VALID,0.0339617,VALID,19.7382,VALID,191,VALID,0.165296,
2002-03-17, 00:08:00,VALID,918.065,VALID,0,VALID,97.6732,VALID,0,VALID,19.738,VALID,191,VALID,0.00094697,
2002-03-17, 00:09:00,VALID,918.055,VALID,0,VALID,97.7597,VALID,0.0509425,VALID,19.7638,VALID,184,VALID,0.00596217,
2002-03-17, 00:10:00,VALID,918.048,VALID,0,VALID,97.8017,VALID,0,VALID,19.7763,VALID,123,VALID,0.300781,
2002-03-17, 00:11:00,VALID,918.039,VALID,0,VALID,97.8245,VALID,0.0169808,VALID,19.8028,VALID,107,VALID,0.462993,
2002-03-17, 00:12:00,VALID,918.051,VALID,0,VALID,97.9008,VALID,0.0169808,VALID,19.8222,VALID,94,VALID,0.625411,
2002-03-17, 00:13:00,VALID,918.046,VALID,0,VALID,98.1221,VALID,0,VALID,19.8573,VALID,91,VALID,0.64741,
2002-03-17, 00:14:00,VALID,918.047,VALID,0,VALID,98.2887,VALID,0.0169808,VALID,19.9383,VALID,91,VALID,0.598958,
2002-03-17, 00:15:00,VALID,918.026,VALID,0,VALID,98.2098,VALID,0,VALID,19.9706,VALID,89,VALID,0.550887,
2002-03-17, 00:16:00,VALID,918.014,VALID,0,VALID,98.131,VALID,0,VALID,19.9604,VALID,74,VALID,0.516447,
2002-03-17, 00:17:00,VALID,917.982,VALID,0,VALID,98.028,VALID,0.0169808,VALID,19.9283,VALID,56,VALID,0.636719,
2002-03-17, 00:18:00,VALID,917.951,VALID,0,VALID,98.0318,VALID,0.0169808,VALID,19.9219,VALID,42,VALID,0.604384,
2002-03-17, 00:19:00,VALID,917.947,VALID,0,VALID,98.0572,VALID,0,VALID,19.9186,VALID,41,VALID,0.48902,
2002-03-17, 00:20:00,VALID,917.94,VALID,0,VALID,98.075,VALID,0,VALID,19.9219,VALID,40,VALID,0.509252,
2002-03-17, 00:21:00,VALID,917.932,VALID,0,VALID,98.0344,VALID,0.0339617,VALID,19.9348,VALID,39,VALID,0.51942,
2002-03-17, 00:22:00,VALID,917.939,VALID,0,VALID,98.0903,VALID,0.0169808,VALID,19.9383,VALID,48,VALID,0.744088,
2002-03-17, 00:23:00,VALID,917.934,VALID,0,VALID,98.2429,VALID,0,VALID,19.983,VALID,54,VALID,0.899877,
2002-03-17, 00:24:00,VALID,917.94,VALID,0,VALID,98.2683,VALID,0.0169808,VALID,20.0317,VALID,61,VALID,0.856696,
2002-03-17, 00:25:00,VALID,917.932,VALID,0,VALID,98.3484,VALID,0,VALID,20.0643,VALID,77,VALID,0.835737,
2002-03-17, 00:26:00,VALID,917.931,VALID,0,VALID,98.3764,VALID,-0.0849042,VALID,20.1075,VALID,81,VALID,0.766059,
2002-03-17, 00:27:00,VALID,917.915,VALID,0,VALID,98.3344,VALID,-0.101885,VALID,20.1267,VALID,82,VALID,0.665502,
2002-03-17, 00:28:00,VALID,917.921,VALID,0,VALID,98.2785,VALID,-0.101885,VALID,20.1237,VALID,83,VALID,0.61986,
2002-03-17, 00:29:00,VALID,917.926,VALID,0,VALID,98.2632,VALID,-0.0849042,VALID,20.1043,VALID,82,VALID,0.719172,
2002-03-17, 00:30:00,VALID,917.936,VALID,0,VALID,98.2632,VALID,-0.101885,VALID,20.0881,VALID,77,VALID,0.712305,
2002-03-17, 00:31:00,VALID,917.937,VALID,0,VALID,98.173,VALID,-0.0849042,VALID,20.0459,VALID,68,VALID,0.810497,
2002-03-17, 00:32:00,VALID,917.923,VALID,0,VALID,98.1246,VALID,-0.0679233,VALID,20.0138,VALID,61,VALID,0.90024,
2002-03-17, 00:33:00,VALID,917.899,VALID,0,VALID,98.1323,VALID,-0.0849042,VALID,19.991,VALID,71,VALID,0.877956,
2002-03-17, 00:34:00,VALID,917.865,VALID,0,VALID,98.1106,VALID,-0.0849042,VALID,19.978,VALID,75,VALID,0.813702,
2002-03-17, 00:35:00,VALID,917.838,VALID,0,VALID,98.0903,VALID,-0.101885,VALID,19.9552,VALID,80,VALID,0.828585,
2002-03-17, 00:36:00,VALID,917.828,VALID,0,VALID,98.0814,VALID,-0.101885,VALID,19.9455,VALID,78,VALID,0.7125,
2002-03-17, 00:37:00,VALID,917.829,VALID,0,VALID,98.089,VALID,-0.0849042,VALID,19.9259,VALID,77,VALID,0.467311,
2002-03-17, 00:38:00,VALID,917.841,VALID,0,VALID,98.1208,VALID,-0.0849042,VALID,19.9231,VALID,77,VALID,0.349559,
2002-03-17, 00:39:00,VALID,917.869,VALID,0,VALID,98.159,VALID,-0.0849042,VALID,19.9201,VALID,76,VALID,0.142681,
2002-03-17, 00:40:00,VALID,917.887,VALID,0,VALID,98.1946,VALID,-0.0849042,VALID,19.9199,VALID,76,VALID,0,
2002-03-17, 00:41:00,VALID,917.895,VALID,0,VALID,98.1984,VALID,-0.0849042,VALID,19.9164,VALID,76,VALID,0.0613281,
2002-03-17, 00:42:00,VALID,917.887,VALID,0,VALID,98.1768,VALID,-0.0849042,VALID,19.9231,VALID,76,VALID,0.0342548,
2002-03-17, 00:43:00,VALID,917.884,VALID,0,VALID,98.2111,VALID,-0.0509425,VALID,19.9328,VALID,76,VALID,0,
2002-03-17, 00:44:00,VALID,917.87,VALID,0,VALID,98.2378,VALID,-0.0849042,VALID,19.9385,VALID,76,VALID,0,
2002-03-17, 00:45:00,VALID,917.87,VALID,0,VALID,98.2454,VALID,-0.0679233,VALID,19.9485,VALID,76,VALID,0.0584936,
2002-03-17, 00:46:00,VALID,917.873,VALID,0,VALID,98.2531,VALID,-0.0679233,VALID,19.9552,VALID,77,VALID,0.138091,
2002-03-17, 00:47:00,VALID,917.87,VALID,0,VALID,98.2289,VALID,-0.101885,VALID,19.9684,VALID,81,VALID,0.277444,
2002-03-17, 00:48:00,VALID,917.874,VALID,0,VALID,98.1755,VALID,-0.101885,VALID,19.9519,VALID,93,VALID,0.225694,
2002-03-17, 00:49:00,VALID,917.866,VALID,0,VALID,98.1997,VALID,-0.0849042,VALID,19.9522,VALID,93,VALID,0.0457899,
2002-03-17, 00:50:00,VALID,917.842,VALID,0,VALID,98.2353,VALID,-0.0679233,VALID,19.9455,VALID,94,VALID,0,
2002-03-17, 00:51:00,VALID,917.813,VALID,0,VALID,98.2391,VALID,-0.0849042,VALID,19.949,VALID,94,VALID,0.0361064,
2002-03-17, 00:52:00,VALID,917.767,VALID,0,VALID,98.2518,VALID,-0.101885,VALID,19.9455,VALID,94,VALID,0.130208,
2002-03-17, 00:53:00,VALID,917.765,VALID,0,VALID,98.2543,VALID,-0.0679233,VALID,19.9522,VALID,94,VALID,0.0960115,
2002-03-17, 00:54:00,VALID,917.746,VALID,0,VALID,98.2493,VALID,-0.101885,VALID,19.9522,VALID,98,VALID,0.264482,
2002-03-17, 00:55:00,VALID,917.755,VALID,0,VALID,98.2111,VALID,-0.0849042,VALID,19.9355,VALID,156,VALID,0.454728,
2002-03-17, 00:56:00,VALID,917.761,VALID,0,VALID,98.1984,VALID,-0.101885,VALID,19.9331,VALID,167,VALID,0.446368,
2002-03-17, 00:57:00,VALID,917.753,VALID,0,VALID,98.1552,VALID,-0.101885,VALID,19.9035,VALID,172,VALID,0.53468,
2002-03-17, 00:58:00,VALID,917.749,VALID,0,VALID,98.1335,VALID,-0.0849042,VALID,19.8779,VALID,177,VALID,0.522035,
2002-03-17, 00:59:00,VALID,917.75,VALID,0,VALID,98.1666,VALID,-0.101885,VALID,19.8615,VALID,188,VALID,0.319257,
2002-03-17, 01:00:00,VALID,917.749,VALID,0,VALID,98.2111,VALID,-0.0849042,VALID,19.8553,VALID,187,VALID,0.200304,
2002-03-17, 01:01:00,VALID,917.741,VALID,0,VALID,98.2582,VALID,-0.101885,VALID,19.8612,VALID,202,VALID,0.308494,
2002-03-17, 01:02:00,VALID,917.736,VALID,0,VALID,98.2747,VALID,-0.101885,VALID,19.8776,VALID,190,VALID,0.289982,
2002-03-17, 01:03:00,VALID,917.731,VALID,0,VALID,98.2785,VALID,-0.0849042,VALID,19.8811,VALID,205,VALID,0.493945,
2002-03-17, 01:04:00,VALID,917.726,VALID,0,VALID,98.3039,VALID,-0.101885,VALID,19.8811,VALID,195,VALID,0.368421,
2002-03-17, 01:05:00,VALID,917.722,VALID,0,VALID,98.309,VALID,-0.101885,VALID,19.9037,VALID,189,VALID,0.243056,
2002-03-17, 01:06:00,VALID,917.708,VALID,0,VALID,98.3395,VALID,-0.101885,VALID,19.9037,VALID,189,VALID,0.0542763,
2002-03-17, 01:07:00,VALID,917.689,VALID,0,VALID,98.3548,VALID,-0.101885,VALID,19.9296,VALID,189,VALID,0.0453125,
2002-03-17, 01:08:00,VALID,917.68,VALID,0,VALID,98.3612,VALID,-0.101885,VALID,19.9425,VALID,189,VALID,0,
2002-03-17, 01:09:00,VALID,917.658,VALID,0,VALID,98.3167,VALID,-0.0849042,VALID,19.9328,VALID,137,VALID,0.127878,
2002-03-17, 01:10:00,VALID,917.644,VALID,0,VALID,98.2734,VALID,-0.0679233,VALID,19.9256,VALID,44,VALID,0.435547,
2002-03-17, 01:11:00,VALID,917.643,VALID,0,VALID,98.2137,VALID,0,VALID,19.8925,VALID,43,VALID,0.579127,
2002-03-17, 01:12:00,VALID,917.643,VALID,0,VALID,98.1463,VALID,0,VALID,19.8642,VALID,43,VALID,0.686022,
2002-03-17, 01:13:00,VALID,917.627,VALID,0,VALID,98.0636,VALID,0.0169808,VALID,19.8086,VALID,44,VALID,0.621311,
2002-03-17, 01:14:00,VALID,917.606,VALID,0,VALID,98.075,VALID,0.0169808,VALID,19.7956,VALID,36,VALID,0.494191,
2002-03-17, 01:15:00,VALID,917.593,VALID,0,VALID,98.0865,VALID,0.0169808,VALID,19.7827,VALID,33,VALID,0.497677,
2002-03-17, 01:16:00,VALID,917.582,VALID,0,VALID,98.1119,VALID,0.0169808,VALID,19.7827,VALID,34,VALID,0.579392,
2002-03-17, 01:17:00,VALID,917.585,VALID,0,VALID,98.1221,VALID,0,VALID,19.7959,VALID,45,VALID,0.762386,
2002-03-17, 01:18:00,VALID,917.578,VALID,0,VALID,98.1463,VALID,0,VALID,19.7956,VALID,39,VALID,0.778716,
2002-03-17, 01:19:00,VALID,917.594,VALID,0,VALID,98.1221,VALID,0,VALID,19.7989,VALID,29,VALID,0.650586,
2002-03-17, 01:20:00,VALID,917.588,VALID,0,VALID,98.0827,VALID,0,VALID,19.8026,VALID,22,VALID,0.773838,
2002-03-17, 01:21:00,VALID,917.578,VALID,0,VALID,98.0852,VALID,-0.0169808,VALID,19.7827,VALID,36,VALID,0.854102,
2002-03-17, 01:22:00,VALID,917.563,VALID,0,VALID,98.1005,VALID,0,VALID,19.7932,VALID,33,VALID,0.499794,
2002-03-17, 01:23:00,VALID,917.549,VALID,0,VALID,98.1653,VALID,0,VALID,19.7996,VALID,42,VALID,0.447163,
2002-03-17, 01:24:00,VALID,917.532,VALID,0,VALID,98.1819,VALID,-0.0169808,VALID,19.8056,VALID,34,VALID,0.535051,
2002-03-17, 01:25:00,VALID,917.539,VALID,0,VALID,98.1984,VALID,-0.0169808,VALID,19.8051,VALID,17,VALID,0.618359,
2002-03-17, 01:26:00,VALID,917.54,VALID,0,VALID,98.2264,VALID,0,VALID,19.8212,VALID,15,VALID,0.792535,
2002-03-17, 01:27:00,VALID,917.531,VALID,0,VALID,98.2543,VALID,0,VALID,19.8309,VALID,13,VALID,0.672297,
2002-03-17, 01:28:00,VALID,917.511,VALID,0,VALID,98.2798,VALID,0,VALID,19.8376,VALID,12,VALID,0.48972,
2002-03-17, 01:29:00,VALID,917.495,VALID,0,VALID,98.2683,VALID,0,VALID,19.8443,VALID,3,VALID,0.350852,
2002-03-17, 01:30:00,VALID,917.485,VALID,0,VALID,98.2696,VALID,0,VALID,19.8339,VALID,333,VALID,0.432566,
2002-03-17, 01:31:00,VALID,917.466,VALID,0,VALID,98.276,VALID,0.0169808,VALID,19.8436,VALID,333,VALID,0.169141,
2002-03-17, 01:32:00,VALID,917.454,VALID,0,VALID,98.3039,VALID,0.0169808,VALID,19.853,VALID,333,VALID,0,
2002-03-17, 01:33:00,VALID,917.445,VALID,0,VALID,98.3344,VALID,0.0169808,VALID,19.8694,VALID,333,VALID,0.113281,
2002-03-17, 01:34:00,VALID,917.445,VALID,0,VALID,98.384,VALID,0.0169808,VALID,19.8958,VALID,333,VALID,0.0293997,
2002-03-17, 01:35:00,VALID,917.448,VALID,0,VALID,98.3891,VALID,0,VALID,19.9084,VALID,333,VALID,0,
2002-03-17, 01:36:00,VALID,917.424,VALID,0,VALID,98.3879,VALID,0.0169808,VALID,19.9343,VALID,333,VALID,0,
2002-03-17, 01:37:00,VALID,917.402,VALID,0,VALID,98.4196,VALID,0,VALID,19.9502,VALID,333,VALID,0,
2002-03-17, 01:38:00,VALID,917.378,VALID,0,VALID,98.4146,VALID,0.0169808,VALID,19.9693,VALID,333,VALID,0,
2002-03-17, 01:39:00,VALID,917.345,VALID,0,VALID,98.4108,VALID,0,VALID,19.983,VALID,350,VALID,0.0544705,
2002-03-17, 01:40:00,VALID,917.331,VALID,0,VALID,98.3764,VALID,0,VALID,19.9927,VALID,15,VALID,0.00253378,
2002-03-17, 01:41:00,VALID,917.319,VALID,0,VALID,98.3726,VALID,0.0339617,VALID,19.9892,VALID,15,VALID,0.196957,
2002-03-17, 01:42:00,VALID,917.307,VALID,0,VALID,98.2925,VALID,0,VALID,19.9731,VALID,32,VALID,0.423438,
2002-03-17, 01:43:00,VALID,917.294,VALID,0,VALID,98.2721,VALID,0.0169808,VALID,19.9567,VALID,36,VALID,0.64527,
2002-03-17, 01:44:00,VALID,917.281,VALID,0,VALID,98.1984,VALID,0.0339617,VALID,19.941,VALID,29,VALID,0.928454,
2002-03-17, 01:45:00,VALID,917.262,VALID,0,VALID,98.1564,VALID,0.0339617,VALID,19.9243,VALID,12,VALID,0.745313,
2002-03-17, 01:46:00,VALID,917.25,VALID,0,VALID,98.0903,VALID,0.0169808,VALID,19.9211,VALID,17,VALID,0.919271,
2002-03-17, 01:47:00,VALID,917.234,VALID,0,VALID,98.0165,VALID,0,VALID,19.9343,VALID,15,VALID,1.05881,
2002-03-17, 01:48:00,VALID,917.207,VALID,0,VALID,97.8589,VALID,0.0169808,VALID,19.934,VALID,14,VALID,0.905633,
2002-03-17, 01:49:00,VALID,917.193,VALID,0,VALID,97.7177,VALID,0.0339617,VALID,19.9539,VALID,11,VALID,0.913651,
2002-03-17, 01:50:00,VALID,917.177,VALID,0,VALID,97.5842,VALID,0.0339617,VALID,19.9601,VALID,1,VALID,0.774916,
2002-03-17, 01:51:00,VALID,917.17,VALID,0,VALID,97.4303,VALID,0,VALID,19.9736,VALID,6,VALID,1.00801,
2002-03-17, 01:52:00,VALID,917.141,VALID,0,VALID,97.2867,VALID,0,VALID,19.9793,VALID,13,VALID,1.18029,
2002-03-17, 01:53:00,VALID,917.116,VALID,0,VALID,97.1989,VALID,0,VALID,19.986,VALID,3,VALID,1.11979,
2002-03-17, 01:54:00,VALID,917.114,VALID,0,VALID,97.0934,VALID,0.0339617,VALID,19.9957,VALID,2,VALID,0.673986,
2002-03-17, 01:55:00,VALID,917.102,VALID,0,VALID,96.9916,VALID,-0.0169808,VALID,20.0123,VALID,355,VALID,0.20613,
2002-03-17, 01:56:00,VALID,917.115,VALID,0,VALID,96.9497,VALID,-0.101885,VALID,20.0133,VALID,355,VALID,0.120404,
2002-03-17, 01:57:00,VALID,917.103,VALID,0,VALID,96.9052,VALID,-0.0849042,VALID,20.0136,VALID,332,VALID,0.31543,
2002-03-17, 01:58:00,VALID,917.106,VALID,0,VALID,96.9535,VALID,-0.101885,VALID,20.0002,VALID,326,VALID,0.146793,
2002-03-17, 01:59:00,VALID,917.078,VALID,0,VALID,97.0323,VALID,-0.0849042,VALID,19.9902,VALID,326,VALID,0.094351,
2002-03-17, 02:00:00,VALID,917.073,VALID,0,VALID,97.162,VALID,-0.0509425,VALID,20.0235,VALID,326,VALID,0,
2002-03-17, 02:01:00,VALID,917.052,VALID,0,VALID,97.2612,VALID,-0.0849042,VALID,20.0297,VALID,326,VALID,0.00078125,
2002-03-17, 02:02:00,VALID,917.033,VALID,0,VALID,97.3172,VALID,-0.101885,VALID,20.0228,VALID,325,VALID,0.0628906,
2002-03-17, 02:03:00,VALID,917.012,VALID,0,VALID,97.3235,VALID,-0.101885,VALID,20.0163,VALID,335,VALID,0.188101,
2002-03-17, 02:04:00,VALID,917.005,VALID,0,VALID,97.4443,VALID,-0.0849042,VALID,20.0327,VALID,15,VALID,0.423109,
2002-03-17, 02:05:00,VALID,916.989,VALID,0,VALID,97.4507,VALID,-0.101885,VALID,20.0588,VALID,7,VALID,0.217949,
2002-03-17, 02:06:00,VALID,916.998,VALID,0,VALID,97.3858,VALID,-0.0679233,VALID,20.0427,VALID,353,VALID,0.305689,
2002-03-17, 02:07:00,VALID,916.986,VALID,0,VALID,97.4316,VALID,-0.101885,VALID,20.033,VALID,346,VALID,0.404139,
2002-03-17, 02:08:00,VALID,916.97,VALID,0,VALID,97.4075,VALID,-0.0849042,VALID,19.9939,VALID,333,VALID,0.3125,
2002-03-17, 02:09:00,VALID,916.957,VALID,0,VALID,97.4977,VALID,-0.0679233,VALID,20.0041,VALID,333,VALID,0.151476,
2002-03-17, 02:10:00,VALID,916.956,VALID,0,VALID,97.602,VALID,-0.0849042,VALID,20.0128,VALID,348,VALID,0.260851,
2002-03-17, 02:11:00,VALID,916.971,VALID,0,VALID,97.677,VALID,-0.0339617,VALID,20.0409,VALID,360,VALID,0.294071,
2002-03-17, 02:12:00,VALID,916.964,VALID,0,VALID,97.7126,VALID,0.0169808,VALID,20.0538,VALID,15,VALID,0.275549,
2002-03-17, 02:13:00,VALID,916.99,VALID,0,VALID,97.6898,VALID,0,VALID,20.0638,VALID,25,VALID,0.2502,
2002-03-17, 02:14:00,VALID,916.979,VALID,0,VALID,97.6554,VALID,0,VALID,20.0573,VALID,21,VALID,0.447574,
2002-03-17, 02:15:00,VALID,916.977,VALID,0,VALID,97.6427,VALID,0.0679233,VALID,20.0573,VALID,33,VALID,0.481898,
2002-03-17, 02:16:00,VALID,916.966,VALID,0,VALID,97.6694,VALID,0.0169808,VALID,20.0563,VALID,38,VALID,0.394832,
2002-03-17, 02:17:00,VALID,916.962,VALID,0,VALID,97.6313,VALID,0.0169808,VALID,20.0762,VALID,42,VALID,0.431377,
2002-03-17, 02:18:00,VALID,916.944,VALID,0,VALID,97.574,VALID,0.0339617,VALID,20.0695,VALID,42,VALID,0.255716,
2002-03-17, 02:19:00,VALID,916.943,VALID,0,VALID,97.5333,VALID,0.0169808,VALID,20.0737,VALID,41,VALID,0.3748,
2002-03-17, 02:20:00,VALID,916.939,VALID,0,VALID,97.5219,VALID,0.0339617,VALID,20.0665,VALID,40,VALID,0.188133,
2002-03-17, 02:21:00,VALID,916.932,VALID,0,VALID,97.5397,VALID,0,VALID,20.0928,VALID,42,VALID,0.353082,
2002-03-17, 02:22:00,VALID,916.93,VALID,0,VALID,97.4723,VALID,0.0339617,VALID,20.0926,VALID,46,VALID,0.636218,
2002-03-17, 02:23:00,VALID,916.939,VALID,0,VALID,97.4634,VALID,0.0169808,VALID,20.0988,VALID,45,VALID,0.597197,
2002-03-17, 02:24:00,VALID,916.931,VALID,0,VALID,97.41,VALID,0.0679233,VALID,20.109,VALID,44,VALID,0.47793,
2002-03-17, 02:25:00,VALID,916.918,VALID,0,VALID,97.3426,VALID,0,VALID,20.1082,VALID,45,VALID,0.384663,
2002-03-17, 02:26:00,VALID,916.904,VALID,0,VALID,97.3006,VALID,0.0169808,VALID,20.1147,VALID,47,VALID,0.431641,
2002-03-17, 02:27:00,VALID,916.909,VALID,0,VALID,97.1773,VALID,0.0169808,VALID,20.1281,VALID,67,VALID,0.42537,
2002-03-17, 02:28:00,VALID,916.901,VALID,0,VALID,97.0578,VALID,-0.0169808,VALID,20.1217,VALID,77,VALID,0.32207,
2002-03-17, 02:29:00,VALID,916.913,VALID,0,VALID,97.0298,VALID,0.0509425,VALID,20.1177,VALID,77,VALID,0.303043,
2002-03-17, 02:30:00,VALID,916.907,VALID,0,VALID,97.0145,VALID,0.0339617,VALID,20.1308,VALID,77,VALID,0.0777138,
2002-03-17, 02:31:00,VALID,916.905,VALID,0,VALID,96.9865,VALID,0,VALID,20.1475,VALID,77,VALID,0.00390625,
2002-03-17, 02:32:00,VALID,916.888,VALID,0,VALID,96.9738,VALID,0.0509425,VALID,20.1435,VALID,78,VALID,0.16847,
2002-03-17, 02:33:00,VALID,916.875,VALID,0,VALID,96.9904,VALID,0.0169808,VALID,20.1535,VALID,138,VALID,0.236698,
2002-03-17, 02:34:00,VALID,916.849,VALID,0,VALID,96.9955,VALID,0,VALID,20.1731,VALID,180,VALID,0.00347222,
2002-03-17, 02:35:00,VALID,916.848,VALID,0,VALID,96.9713,VALID,0,VALID,20.1796,VALID,180,VALID,0,
2002-03-17, 02:36:00,VALID,916.843,VALID,0,VALID,96.9751,VALID,0,VALID,20.2029,VALID,180,VALID,0,
2002-03-17, 02:37:00,VALID,916.848,VALID,0,VALID,96.9827,VALID,0.0169808,VALID,20.1863,VALID,180,VALID,0,
2002-03-17, 02:38:00,VALID,916.879,VALID,0,VALID,96.9624,VALID,0.0509425,VALID,20.1793,VALID,180,VALID,0,
2002-03-17, 02:39:00,VALID,916.886,VALID,0,VALID,96.9357,VALID,0.0509425,VALID,20.1731,VALID,180,VALID,0.00464527,
2002-03-17, 02:40:00,VALID,916.907,VALID,0,VALID,96.9459,VALID,0.0169808,VALID,20.1733,VALID,171,VALID,0.251172,
2002-03-17, 02:41:00,VALID,916.913,VALID,0,VALID,96.9522,VALID,0.0169808,VALID,20.1736,VALID,159,VALID,0.525441,
2002-03-17, 02:42:00,VALID,916.901,VALID,0,VALID,96.9039,VALID,0.0169808,VALID,20.1472,VALID,167,VALID,0.769727,
2002-03-17, 02:43:00,VALID,916.891,VALID,0,VALID,96.8886,VALID,0.0169808,VALID,20.1179,VALID,166,VALID,0.756373,
2002-03-17, 02:44:00,VALID,916.876,VALID,0,VALID,96.9141,VALID,0.0169808,VALID,20.0861,VALID,170,VALID,0.846012,
2002-03-17, 02:45:00,VALID,916.862,VALID,0,VALID,96.9637,VALID,0,VALID,20.0638,VALID,171,VALID,0.948691,
2002-03-17, 02:46:00,VALID,916.848,VALID,0,VALID,97.0438,VALID,0,VALID,20.0113,VALID,167,VALID,0.676367,
2002-03-17, 02:47:00,VALID,916.841,VALID,0,VALID,97.1658,VALID,0,VALID,19.9954,VALID,164,VALID,0.297743,
2002-03-17, 02:48:00,VALID,916.82,VALID,0,VALID,97.2841,VALID,0,VALID,19.9895,VALID,164,VALID,0.190245,
2002-03-17, 02:49:00,VALID,916.807,VALID,0,VALID,97.3617,VALID,0,VALID,19.9693,VALID,164,VALID,0.131373,
2002-03-17, 02:50:00,VALID,916.798,VALID,0,VALID,97.4443,VALID,0.0169808,VALID,19.9631,VALID,164,VALID,0.0153883,
2002-03-17, 02:51:00,VALID,916.779,VALID,0,VALID,97.5677,VALID,0,VALID,19.9626,VALID,70,VALID,0.30736,
2002-03-17, 02:52:00,VALID,916.73,VALID,0,VALID,97.6071,VALID,0,VALID,19.9604,VALID,27,VALID,0.358398,
2002-03-17, 02:53:00,VALID,916.715,VALID,0,VALID,97.6783,VALID,0.0339617,VALID,19.9601,VALID,12,VALID,0.0125,
2002-03-17, 02:54:00,VALID,916.694,VALID,0,VALID,97.7393,VALID,0,VALID,19.9567,VALID,12,VALID,0,
2002-03-17, 02:55:00,VALID,916.654,VALID,0,VALID,97.7889,VALID,0.0509425,VALID,19.9663,VALID,12,VALID,0,
2002-03-17, 02:56:00,VALID,916.634,VALID,0,VALID,97.808,VALID,0.101885,VALID,19.9653,VALID,12,VALID,0.240184,
2002-03-17, 02:57:00,VALID,916.59,VALID,0,VALID,97.7978,VALID,0.0849042,VALID,19.9624,VALID,12,VALID,0.161529,
2002-03-17, 02:58:00,VALID,916.583,VALID,0,VALID,97.7927,VALID,0.0849042,VALID,19.9624,VALID,12,VALID,0.109581,
2002-03-17, 02:59:00,VALID,916.554,VALID,0,VALID,97.7381,VALID,0.0679233,VALID,19.9301,VALID,12,VALID,0,
2002-03-17, 03:00:00,VALID,916.542,VALID,0,VALID,97.7355,VALID,0.0849042,VALID,19.9037,VALID,12,VALID,0,
2002-03-17, 03:01:00,VALID,916.529,VALID,0,VALID,97.747,VALID,0.0849042,VALID,19.9042,VALID,12,VALID,0,
2002-03-17, 03:02:00,VALID,916.528,VALID,0,VALID,97.7343,VALID,0.0509425,VALID,19.8978,VALID,12,VALID,0,
2002-03-17, 03:03:00,VALID,916.517,VALID,0,VALID,97.6974,VALID,0.101885,VALID,19.8846,VALID,12,VALID,0,
2002-03-17, 03:04:00,VALID,916.51,VALID,0,VALID,97.7393,VALID,0.0679233,VALID,19.8848,VALID,12,VALID,0,
2002-03-17, 03:05:00,VALID,916.513,VALID,0,VALID,97.7584,VALID,0.101885,VALID,19.8714,VALID,12,VALID,0,
2002-03-17, 03:06:00,VALID,916.497,VALID,0,VALID,97.7902,VALID,0.0849042,VALID,19.8851,VALID,12,VALID,0,
2002-03-17, 03:07:00,VALID,916.491,VALID,0,VALID,97.8258,VALID,0.0849042,VALID,19.8913,VALID,12,VALID,0,
2002-03-17, 03:08:00,VALID,916.486,VALID,0,VALID,97.8449,VALID,0.0679233,VALID,19.8975,VALID,12,VALID,0,
2002-03-17, 03:09:00,VALID,916.471,VALID,0,VALID,97.85,VALID,0.0849042,VALID,19.9074,VALID,12,VALID,0,
2002-03-17, 03:10:00,VALID,916.463,VALID,0,VALID,97.8322,VALID,0.0509425,VALID,19.9052,VALID,12,VALID,0,
2002-03-17, 03:11:00,VALID,916.458,VALID,0,VALID,97.8245,VALID,0,VALID,19.9027,VALID,12,VALID,0,
2002-03-17, 03:12:00,VALID,916.452,VALID,0,VALID,97.8233,VALID,-0.0339617,VALID,19.9025,VALID,12,VALID,0,
2002-03-17, 03:13:00,VALID,916.453,VALID,0,VALID,97.7915,VALID,-0.0169808,VALID,19.9124,VALID,12,VALID,0,
2002-03-17, 03:14:00,VALID,916.447,VALID,0,VALID,97.7699,VALID,-0.0169808,VALID,19.8893,VALID,12,VALID,0,
2002-03-17, 03:15:00,VALID,916.448,VALID,0,VALID,97.8195,VALID,0,VALID,19.8993,VALID,12,VALID,0,
2002-03-17, 03:16:00,VALID,916.445,VALID,0,VALID,97.7927,VALID,0,VALID,19.8958,VALID,12,VALID,0,
2002-03-17, 03:17:00,VALID,916.449,VALID,0,VALID,97.7927,VALID,-0.0169808,VALID,19.8958,VALID,21,VALID,0,
2002-03-17, 03:18:00,VALID,916.443,VALID,0,VALID,97.7673,VALID,0,VALID,19.8925,VALID,118,VALID,0.0308594,
2002-03-17, 03:19:00,VALID,916.433,VALID,0,VALID,97.8296,VALID,-0.0169808,VALID,19.8858,VALID,160,VALID,0.276521,
2002-03-17, 03:20:00,VALID,916.433,VALID,0,VALID,97.8754,VALID,-0.0169808,VALID,19.9025,VALID,165,VALID,0.133614,
2002-03-17, 03:21:00,VALID,916.426,VALID,0,VALID,97.8996,VALID,-0.0509425,VALID,19.9052,VALID,165,VALID,0.117188,
2002-03-17, 03:22:00,VALID,916.418,VALID,0,VALID,97.9263,VALID,-0.0339617,VALID,19.9318,VALID,165,VALID,0.266211,
2002-03-17, 03:23:00,VALID,916.411,VALID,0,VALID,97.9352,VALID,0,VALID,19.9512,VALID,164,VALID,0.120898,
2002-03-17, 03:24:00,VALID,916.388,VALID,0,VALID,97.9542,VALID,-0.0169808,VALID,19.9574,VALID,162,VALID,0.108774,
2002-03-17, 03:25:00,VALID,916.391,VALID,0,VALID,97.9759,VALID,-0.0679233,VALID,19.9604,VALID,144,VALID,0.548314,
2002-03-17, 03:26:00,VALID,916.395,VALID,0,VALID,97.9644,VALID,-0.0849042,VALID,19.99,VALID,142,VALID,0.465345,
2002-03-17, 03:27:00,VALID,916.412,VALID,0,VALID,97.9301,VALID,-0.0679233,VALID,19.99,VALID,130,VALID,0.371595,
2002-03-17, 03:28:00,VALID,916.434,VALID,0,VALID,97.925,VALID,-0.0679233,VALID,19.9967,VALID,126,VALID,0.329814,
2002-03-17, 03:29:00,VALID,916.451,VALID,0,VALID,97.9034,VALID,-0.0849042,VALID,19.9937,VALID,123,VALID,0.381611,
2002-03-17, 03:30:00,VALID,916.476,VALID,0,VALID,97.9034,VALID,-0.0339617,VALID,19.9768,VALID,121,VALID,0.309679,
2002-03-17, 03:31:00,VALID,916.49,VALID,0,VALID,97.8856,VALID,-0.0339617,VALID,19.977,VALID,121,VALID,0.328125,
2002-03-17, 03:32:00,VALID,916.486,VALID,0,VALID,97.9174,VALID,-0.0339617,VALID,19.9708,VALID,121,VALID,0.315104,
2002-03-17, 03:33:00,VALID,916.487,VALID,0,VALID,97.9784,VALID,-0.0339617,VALID,19.9741,VALID,121,VALID,0.0470861,
2002-03-17, 03:34:00,VALID,916.499,VALID,0,VALID,98.0407,VALID,-0.0339617,VALID,19.9805,VALID,121,VALID,0,
2002-03-17, 03:35:00,VALID,916.5,VALID,0,VALID,98.0814,VALID,0,VALID,20.0029,VALID,121,VALID,0.030222,